Track STARLINK-1905 now! 10-day predictions STARLINK-1905 is classified as:
1 46746U 20074H 21024.91667824 .00011911 00000-0 81711-3 0 9996 2 46746 53.0543 75.3469 0001218 61.9400 357.0042 15.06402191 14875